Location: Stadlberg
(47.9690°N, 13.2636°E)
Time: 07:49:44
(UTC+01:00)

ISS - Visible Passes

Search period start: 11 December 2018 00:00
Search period end: 21 December 2018 00:00
Orbit: 401 x 408 km, 51.6° (Epoch: 12 December)

Date Brightness Start Highest point End Pass type
(mag) Time Alt. Az. Time Alt. Az. Time Alt. Az.
11 Dec -1.7 18:14:49 10° W 18:17:34 25° SW 18:19:44 13° SSE visible
12 Dec -2.5 17:22:24 10° WNW 17:25:29 41° SSW 17:28:35 10° SE visible
13 Dec -0.6 18:07:49 10° WSW 18:09:19 13° SW 18:10:49 10° SSW visible
14 Dec -1.0 17:14:47 10° W 17:17:19 21° SW 17:19:50 10° S visible
16 Dec 0.1 17:08:25 10° WSW 17:08:58 10° SW 17:09:30 10° SW visible
